AS1_time,AS1_WT_05_Temp,AS1_WT_05_VWC,AS1_Pot_05_Soil_Water_Pot,AS1_WT_10_Temp,AS1_WT_10_VWC,AS1_Pot_10_Soil_Water_Pot
2008-11-01,NaN,NaN,NaN,NaN,NaN,NaN
2008-11-27,7.372727394104,0.341397266496312,-109.96537954157,8.19999980926514,0.332379996776581,-67.5099501176314
2008-11-28,7.11250005165736,0.346822492778301,-28.2254833380381,8.18749988079071,0.332379996776581,-22.7985681692759
2008-11-29,6.43333331743876,0.347912505269051,-18.9561055501302,8.06250023841858,0.332379996776581,-15.8320748408635
2008-11-30,5.75,0.34904791166385,-15.9940787553787,7.83750007549922,0.332379996776581,-13.9807886679967
2008-12-01,5.13750000794729,0.350047075500091,-14.4624366760254,7.54583328962326,0.332379996776581,-13.3342812856038
2008-12-02,4.70416663090388,0.350592085470756,-13.7885056336721,7.22916664679845,0.332379996776581,-13.0478947162628
2008-12-03,4.45416671037674,0.351000840465228,-13.544215520223,6.93333339691162,0.332379996776581,-12.914298693339
2008-12-04,4.3416668176651,0.351182504246632,-13.5311394135157,6.6958332657814,0.331925834218661,-12.8553395271301
2008-12-05,4.30416685342789,0.352499576906363,-13.4333769480387,6.50833332538605,0.331880417962869,-12.8358316421509
2008-12-06,4.43333339691162,0.354770419498285,-12.6530768473943,6.37083345651627,0.332334580520789,-12.6841355959574
2008-12-07,4.40416675806046,0.356132907172044,-11.8965808550517,6.28333346048991,0.332379996776581,-12.3546670277913
2008-12-08,4.63750000794729,0.356359988451004,-11.7524890899658,6.19999980926514,0.332379996776581,-12.0362076759338
2008-12-09,4.80000001192093,0.356359988451004,-11.7346072991689,6.19999980926514,0.332425413032373,-11.8543637990952
2008-12-10,4.51249998807907,0.356450823446115,-11.7233091990153,6.19583314657211,0.332970408101877,-11.7459750175476
2008-12-11,4.38750010728836,0.356359988451004,-11.7265372276306,6.09583324193954,0.332924991846085,-11.7023270130157
2008-12-12,4.25833330551783,0.356087490916252,-11.7492496172587,6,0.332970408101877,-11.6942801475525
2008-12-13,4.39166665077209,0.355088333288829,-11.8326746622721,5.90000009536743,0.332379996776581,-11.7087830702464
2008-12-14,4.57499992847443,0.356269160906474,-11.796581029892,5.90000009536743,0.332470829288165,-11.6878705024719
2008-12-15,4.38333344459534,0.357450008392334,-11.6798816521962,5.88750010728836,0.333106656869253,-11.6590385834376
2008-12-16,4.4125000834465,0.357450008392334,-11.6574361721675,5.80000019073486,0.333197489380836,-11.6208562850952
2008-12-17,4.8791667620341,0.357450008392334,-11.6606295108795,5.80000019073486,0.333469986915588,-11.5908346573512
2008-12-18,5.26666665077209,0.357722505927086,-11.6447087526321,5.87916678190231,0.333469986915588,-11.5719601313273
2008-12-19,5.57916659116745,0.358403749763966,-11.6351631879807,6.03749996423721,0.333469986915588,-11.5235271453857
2008-12-20,5.5708332657814,0.358449166019758,-11.6192996899287,6.14166653156281,0.334196666876475,-11.4955698649089
2008-12-21,5.80833329757055,0.358630831042926,-11.5625511805216,6.22083322207133,0.334560006856918,-11.4432706435521
2008-12-22,6.3041667342186,0.359629988670349,-11.5126398801804,6.35833346843719,0.33460542311271,-11.3313530683517
2008-12-23,6.5,0.359629988670349,-11.4801127910614,6.54583328962326,0.335559164484342,-11.1619095404943
2008-12-24,6.4291667342186,0.359629988670349,-11.4723842541377,6.68333315849304,0.335649996995926,-11.0729323625565
2008-12-25,6.40000009536743,0.359766241163015,-11.4708496332169,6.75416668256124,0.33574082950751,-11.0333013534546
2008-12-26,6.25,0.360129581143459,-11.4432153701782,6.80000019073486,0.336013327042262,-10.9620543718338
2008-12-27,5.77916663885117,0.359675406167905,-11.4493538538615,6.77083341280619,0.33642207334439,-10.9316282272339
2008-12-28,5.43333339691162,0.359629988670349,-11.4631654421488,6.64166653156281,0.336058743298054,-10.9426412582397
2008-12-29,5.35416680574417,0.359629988670349,-11.4708496332169,6.51666665077209,0.335649996995926,-10.9467811584473
2008-12-30,5.14583331346512,0.359629988670349,-11.4677693049113,6.41666674613953,0.335649996995926,-10.9467811584473
2008-12-31,4.69166668256124,0.359448323647181,-11.4862956206004,6.2875000834465,0.335649996995926,-10.9509410858154
2009-01-01,4.25833328564962,0.359448323647181,-11.4801238775253,6.09583324193954,0.335649996995926,-10.9731273651123
2009-01-02,4.12916654348373,0.359629988670349,-11.4356305599213,5.88750010728836,0.334741671880086,-10.964807510376
2009-01-03,4.19999980926514,0.359629988670349,-11.4050597349803,5.75,0.334560006856918,-10.9467811584473
2009-01-04,4.01249997814496,0.358903328577677,-11.4647333224614,5.64999985694885,0.334560006856918,-10.9648176431656
2009-01-05,3.76249998807907,0.359493739902973,-11.4447831312815,5.52916663885117,0.334560006856918,-10.9772974252701
2009-01-06,3.57499999801318,0.359584572414557,-11.4142011801402,5.38333344459534,0.334560006856918,-10.9509410858154
2009-01-07,3.32083331545194,0.359539156158765,-11.4187828699748,5.24583331743876,0.334469171861808,-10.9717407226563
2009-01-08,3.47083333134651,0.359629988670349,-11.3147257963816,5.10833323001862,0.334378336866697,-10.9523277282715
2009-01-09,3.6583333214124,0.359675406167905,-11.2878458499908,5.09999990463257,0.334514589359363,-10.9440178871155
2009-01-10,3.52500000596046,0.359539156158765,-11.3251838684082,5.01666665077209,0.334560006856918,-10.9481778144836
2009-01-11,3.67916667461395,0.359130409856637,-11.362651904424,5,0.334560006856918,-10.9772872924805
2009-01-12,4.63749998807907,0.359084993600845,-11.391391436259,5.03333330154419,0.334560006856918,-10.9814674854279
2009-01-13,5.09999990463257,0.359629988670349,-11.4111540317535,5.25,0.334560006856918,-10.9786840677261
2009-01-14,4.90833342075348,0.359629988670349,-11.42791334788,5.44166672229767,0.334560006856918,-10.9772872924805
2009-01-15,4.80416685342789,0.359629988670349,-11.43248407046,5.5,0.334560006856918,-10.9786739349365
2009-01-16,4.96250003576279,0.359584572414557,-11.43248407046,5.5,0.33460542311271,-10.9828743934631
2009-01-17,5.20833327372869,0.358767079810301,-11.486385067304,5.58333325386047,0.33505958567063,-11.0192416906357
2009-01-18,5.24583333730698,0.358539998531342,-11.6129588683446,5.67499983310699,0.33551374822855,-11.067222237587
2009-01-19,4.97500002384186,0.358539998531342,-11.6896232763926,5.69999980926514,0.335468331972758,-11.1286588907242
2009-01-20,4.662499944369,0.35849458227555,-11.7249348163605,5.67499983310699,0.33505958567063,-11.1864275932312
2009-01-21,4.59583324193954,0.358539998531342,-11.6527093251546,5.59166657924652,0.33460542311271,-11.1849687099457
2009-01-22,4.71666653951009,0.358539998531342,-11.6862680912018,5.5,0.334560006856918,-11.1864275932312
2009-01-23,4.67499993244807,0.358222084740798,-11.7508866786957,5.5,0.334560006856918,-11.2141463756561
2009-01-24,4.5,0.358539998531342,-11.7410981655121,5.5,0.334560006856918,-11.2199925581614
2009-01-25,4.28333338101705,0.358585414787134,-11.7120575110118,5.42083340883255,0.334560006856918,-11.2199925581614
2009-01-26,4.49166667461395,0.359811658660571,-11.5394332011541,5.40000009536743,0.334560006856918,-11.1893663406372
2009-01-27,4.64583319425583,0.360720008611679,-11.3884317874908,5.40000009536743,0.334560006856918,-11.1300655603409
2009-01-28,4.75416666269302,0.360765424867471,-11.2600113550822,5.40000009536743,0.334560006856918,-11.0630219380061
2009-01-29,4.93333339691162,0.361037922402223,-11.1603355407715,5.43333339691162,0.33528666694959,-10.974574804306
2009-01-30,4.82500000794729,0.360810841123263,-11.1675775051117,5.5,0.335649996995926,-10.9164853096008
2009-01-31,4.57916659116745,0.360901673634847,-11.1675775051117,5.49583333730698,0.335649996995926,-10.9109888076782
2009-02-01,4.50833332538605,0.360992506146431,-11.1358069181442,5.40000009536743,0.335649996995926,-10.8850231170654
2009-02-02,4.12916666269302,0.360720008611679,-11.1661291122437,5.36666679382324,0.335649996995926,-10.88365650177
2009-02-03,3.85151517752445,0.360686977704366,-11.1613889174028,5.22727264057506,0.335385756962227,-10.9073859128085
2009-02-04,3.90416668355465,0.360629173616568,-11.1697553396225,5.11041656136513,0.335082293798526,-10.9096372127533
2009-02-05,3.65208331247171,0.360333959882458,-11.1893610954285,5.01666665077209,0.335036877542734,-10.9103405475616
2009-02-06,3.33333333333333,0.360197707389792,-11.190074801445,4.88958343863487,0.33471896375219,-10.9192435741425
2009-02-07,3.2291666418314,0.360583756119013,-11.1871727705002,4.75416668256124,0.334560006856918,-10.9254384040833
2009-02-08,3,0.360720008611679,-11.1509471138318,4.64166653156281,0.334560006856918,-10.9165153503418
2009-02-09,2.84166664381822,0.360720008611679,-11.1394174496333,4.51041665673256,0.334560006856918,-10.914445400238
2009-02-10,3.22291668256124,0.361083338658015,-11.047609825929,4.40000009536743,0.334560006856918,-10.9062256217003
2009-02-11,3.41666674613953,0.361832706878583,-10.6549040277799,4.40416675806046,0.334560006856918,-10.8465332984924
2009-02-12,3.42499999701977,0.362014371901751,-10.3855876723925,4.49791666865349,0.335309375077486,-10.6453433831533
2009-02-13,3.16874996821086,0.362718323866526,-10.1174671252569,4.45208337903023,0.335649996995926,-10.4855618874232
2009-02-14,3.52916666368643,0.36294540638725,-10.0249389012655,4.40000009536743,0.335877078274886,-10.3544607758522
2009-02-15,3.88749998807907,0.362968115136027,-10.0052264134089,4.40625008940697,0.336649154623349,-10.2447110017141
2009-02-16,4.46458332737287,0.36303624138236,-9.98398641745249,4.54166662693024,0.336739987134933,-10.1926194429398
2009-02-17,4.90833338101705,0.363444998860359,-9.97313157717387,4.72708330551783,0.336785404632489,-10.1581411759059
2009-02-18,5.40833336313566,0.363864586318533,-9.97551832596461,4.95208338697751,0.337386662994822,-10.0626647075017
2009-02-19,5.64583333333333,0.36375,-10,5.19583333333333,0.337979166666666,-10
2009-02-20,5.65625,0.363833333333334,-10,5.38541666666667,0.338041666666666,-10
2009-02-21,5.61666666666666,0.363583333333333,-10,5.5,0.338375,-10
2009-02-22,5.86458333333334,0.363041666666666,-10,5.59375,0.338666666666667,-10
2009-02-23,6.125,0.363,-10,5.74166666666667,0.338979166666667,-10
2009-02-24,6.35416666666667,0.363,-10,5.90208333333334,0.339,-10
2009-02-25,6.55625,0.362666666666666,-10,6.07291666666666,0.339,-10
2009-02-26,6.40416666666667,0.362083333333333,-10,6.20208333333333,0.339354166666667,-10
2009-02-27,6.46041666666667,0.362,-10,6.30000000000001,0.33925,-10
2009-02-28,6.65208333333333,0.362,-10.0625,6.36041666666666,0.339145833333334,-10
2009-03-01,6.66875,0.361479166666667,-11,6.4625,0.3391875,-10
2009-03-02,6.46875,0.36125,-11,6.5,0.339166666666667,-10
2009-03-03,6.35416666666667,0.360875,-11,6.5,0.339041666666667,-10
2009-03-04,6.13958333333334,0.360291666666667,-11,6.5,0.339,-10
2009-03-05,6.04583333333333,0.360708333333334,-11,6.40416666666667,0.339,-10
2009-03-06,5.9125,0.361020833333334,-11,6.375,0.339,-10
2009-03-07,6.1,0.361125,-11,6.30000000000001,0.339,-10
2009-03-08,6.19999999999999,0.361,-11,6.3375,0.339,-10
2009-03-09,6.03617021276596,0.361,-11,6.4,0.339,-10
2009-03-10,6.05625,0.361020833333334,-11,6.34375000000001,0.339,-10
2009-03-11,6.38333333333334,0.3615625,-11,6.37708333333333,0.339,-10
2009-03-12,6.68958333333333,0.36125,-11,6.45208333333333,0.339,-10
2009-03-13,6.8375,0.361104166666667,-11,6.57291666666667,0.339,-10
2009-03-14,6.92916666666667,0.361,-11,6.67708333333333,0.339020833333334,-10
2009-03-15,6.96041666666667,0.361,-11,6.76041666666667,0.339125,-10
2009-03-16,7.21666666666666,0.3610625,-11,6.83541666666666,0.339583333333333,-10
2009-03-17,7.29166666666666,0.361,-11,6.92708333333334,0.339854166666667,-10
2009-03-18,7.57291666666667,0.360979166666667,-11,7.04583333333334,0.339916666666667,-10
2009-03-19,7.76458333333333,0.360854166666667,-11,7.16041666666666,0.34,-10
2009-03-20,7.78125,0.360229166666666,-11,7.27291666666667,0.34,-10
2009-03-21,8.03958333333333,0.3600625,-11,7.36458333333333,0.34,-10
2009-03-22,8.03749999999999,0.359916666666666,-11,7.47916666666667,0.34,-10
2009-03-23,7.91666666666666,0.359125,-11,7.54583333333334,0.34,-10
2009-03-24,7.67916666666666,0.358166666666666,-11.75,7.6,0.34,-10
2009-03-25,7.47916666666667,0.35725,-12,7.52083333333333,0.34,-10
2009-03-26,7.57916666666667,0.358,-12,7.5,0.34,-10.6666666666667
2009-03-27,7.41458333333334,0.3588125,-12,7.5,0.339979166666667,-11
2009-03-28,7.19166666666667,0.35925,-12,7.47291666666666,0.339916666666667,-11
2009-03-29,6.87708333333333,0.356166666666666,-12,7.37916666666667,0.339604166666667,-11
2009-03-30,7.09375,0.353895833333333,-12,7.30000000000001,0.339083333333334,-11
2009-03-31,7.47916666666667,0.3535625,-12,7.30000000000001,0.3390625,-11
2009-04-01,7.9625,0.353625,-12,7.39583333333333,0.3393125,-11
2009-04-02,8.21875,0.35325,-13,7.55000000000001,0.339875,-11
2009-04-03,8.67708333333333,0.353270833333333,-13.5,7.70208333333333,0.339979166666667,-11
2009-04-04,8.95416666666666,0.3530625,-14.3958333333333,7.89583333333333,0.34,-11
2009-04-05,8.68333333333333,0.352416666666667,-15.9791666666667,8.05000000000001,0.34,-11
2009-04-06,8.58333333333333,0.352020833333333,-18.1041666666667,8.1,0.34,-11
2009-04-07,8.50625,0.351416666666666,-21.1666666666667,8.1,0.34,-11
2009-04-08,8.46666666666666,0.350875,-25.375,8.1,0.34,-11
2009-04-09,8.39583333333333,0.350083333333333,-29.7291666666667,8.1,0.34,-11
2009-04-10,8.63333333333333,0.349958333333333,-33.75,8.12708333333333,0.34,-11
2009-04-11,8.78958333333333,0.349229166666667,-37.1666666666667,8.19999999999999,0.34,-11
2009-04-12,9.03541666666666,0.3485625,-41.6875,8.29166666666667,0.34,-11
2009-04-13,9.28125,0.348333333333334,-46.6875,8.39166666666666,0.34,-11
2009-04-14,9.3875,0.347979166666667,-51.375,8.5125,0.34,-11.375
2009-04-15,9.20208333333334,0.347770833333334,-56.0625,8.60000000000001,0.340166666666667,-11.9791666666667
2009-04-16,8.99999999999999,0.347041666666666,-60.6041666666667,8.60000000000001,0.340145833333333,-12
2009-04-17,8.9125,0.346125,-65.875,8.60000000000001,0.340020833333333,-12
2009-04-18,8.83333333333334,0.344791666666667,-71.625,8.60000000000001,0.34,-12
2009-04-19,8.78958333333333,0.343604166666667,-78.6458333333333,8.53958333333333,0.34,-11.9791666666667
2009-04-20,9.20833333333333,0.3426875,-86.1666666666667,8.56250000000001,0.34,-11.5625
2009-04-21,9.65833333333333,0.341645833333333,-93.6458333333333,8.66041666666666,0.340020833333333,-11.5
2009-04-22,9.6375,0.3395,-103.708333333333,8.79375000000001,0.340020833333333,-11.7916666666667
2009-04-23,9.93124999999999,0.337895833333333,-112.520833333333,8.91458333333333,0.340375,-12
2009-04-24,9.94791666666666,0.334791666666667,-124.020833333333,9.02083333333334,0.340125,-12
2009-04-25,10.06875,0.330625,-138.104166666667,9.10208333333334,0.340145833333333,-12
2009-04-26,10.1645833333333,0.327104166666667,-151.083333333333,9.19999999999999,0.340020833333333,-12.7708333333333
2009-04-27,10.0770833333333,0.323916666666667,-166.5625,9.28541666666668,0.34,-13.4791666666667
2009-04-28,9.83043478260869,0.322913043478261,-177.369565217391,9.30000000000001,0.34,-14.8913043478261
2009-04-29,9.62291666666667,0.322,-182.416666666667,9.27916666666667,0.34,-17.3541666666667
2009-04-30,9.89374999999999,0.323,-184.395833333333,9.24375,0.34,-21.1041666666667
2009-05-01,10.0125,0.32375,-183.75,9.30000000000001,0.34,-24.375
2009-05-02,9.99583333333333,0.322583333333333,-186.9375,9.35208333333333,0.3398125,-26.5833333333333
2009-05-03,9.99791666666666,0.32075,-194.9375,9.39999999999999,0.3391875,-28.2916666666667
2009-05-04,9.85208333333333,0.319416666666667,-203.770833333333,9.39999999999999,0.339,-29.9166666666667
2009-05-05,9.63333333333334,0.318604166666667,-212.375,9.39999999999999,0.339,-31.5416666666667
2009-05-06,9.71041666666666,0.31825,-217.125,9.32708333333334,0.338645833333333,-33.2291666666667
2009-05-07,9.85208333333334,0.316208333333333,-223.854166666667,9.37083333333332,0.338041666666666,-34.875
2009-05-08,9.76458328167597,0.311716040377815,-258.255065917969,9.39999989668528,0.337794999008377,-38.4130682150523
2009-05-09,9.64375013113022,0.3085816608121,-326.275340398153,9.39999961853027,0.336762695883711,-45.8257998625437
2009-05-10,9.46458333730698,0.306129162510236,-344.579306284587,9.33333333333333,0.336444781472286,-48.8799845377604
2009-05-11,9.70624985297521,0.304198961084088,-359.033191680908,9.30000019073486,0.335649996995926,-52.0824766159058
2009-05-12,9.92083326975504,0.301950835312406,-373.583236058553,9.36041651169459,0.33494604503115,-55.3117560545603
2009-05-13,9.83124985297521,0.298930633813143,-391.3899974823,9.39999961853027,0.334401045615474,-58.7626073360443
2009-05-14,10.0625002384186,0.29584229675432,-408.101812362671,9.39999961853027,0.3334018625319,-62.7790463765462
2009-05-15,10.1312500635783,0.294252722213666,-424.612134297689,9.48749995231628,0.332470829288165,-67.3080792427063
2009-05-16,9.98541661103567,0.295161047329505,-439.526572545369,9.5,0.332062082986037,-72.2607143719991
2009-05-17,10.0687502622604,0.295910415550073,-443.560686747233,9.5,0.331040210401018,-77.2117536862691
2009-05-18,10.1437499523163,0.296409994363785,-442.614545186361,9.51666673024496,0.329450618475676,-81.8582701683044
2009-05-19,10.2020832896233,0.296251037468513,-442.331570943197,9.60000038146973,0.327497705196341,-86.6950526237488
2009-05-20,10.2249999046326,0.295819583038489,-444.318902333577,9.60000038146973,0.325453958163659,-91.1636215845744
2009-05-21,10.3437500993411,0.294911257922649,-448.313245137533,9.65625005960464,0.32336478245755,-96.0626080830892
2009-05-22,10.6145836313566,0.293344382817547,-452.448787689209,9.71666653951009,0.321479997908076,-101.923450628916
2009-05-23,10.7729167540868,0.291073544571797,-461.149248123169,9.8166667620341,0.319231871515512,-108.786618550618
2009-05-24,10.7875000039736,0.287894374380509,-472.749537785848,9.89999961853027,0.315893743187189,-117.424987475077
2009-05-25,11.0958335399628,0.28471520729363,-481.756629943848,9.97291656335195,0.311738119771083,-127.953406492869
2009-05-26,11.6270834604899,0.282648749649525,-488.75505510966,10.1291668017705,0.306696875020862,-140.057990709941
2009-05-27,11.4562500516574,0.281218128278852,-501.368628184001,10.2875001430511,0.301019795238972,-153.17076810201
2009-05-28,11.3083334565163,0.278788334379594,-514.302393595378,10.3666664759318,0.295115630452832,-167.70831489563
2009-05-29,11.795833269755,0.277721042434375,-516.425615946452,10.4291663964589,0.289279587566853,-183.237233161926
2009-05-30,12.5437500874201,0.275495632862051,-516.764788309733,10.6020834048589,0.283080212151011,-199.655899047852
2009-05-31,12.9249999721845,0.274292084698876,-521.394983927409,10.8687498966853,0.278356874361634,-216.064741134644
2009-06-01,13.1937500039736,0.272043954581022,-528.920734405518,11.0916667779287,0.272225626433889,-232.728675524394
2009-06-02,13.5833335121473,0.27018188064297,-532.602490743001,11.3062498966853,0.26709354420503,-248.040618896484
2009-06-03,13.7312500476837,0.268569586177667,-537.494188944499,11.5250000953674,0.262892502670487,-262.303242365519
2009-06-04,13.5062500039736,0.267297919839621,-543.513802846273,11.6749999523163,0.258373541757464,-274.764205932617
2009-06-05,12.8020834128062,0.265776461611191,-554.174561818441,11.6999998092651,0.254581252733866,-285.080203374227
2009-06-06,12.1437498927116,0.26493626087904,-562.356918334961,11.5812502106031,0.252741876989603,-293.033918380737
2009-06-07,11.7874998052915,0.264800012111664,-564.080490112305,11.3999998172124,0.251197710012396,-298.105743408203
2009-06-08,11.583333392938,0.265095217774312,-563.836541493734,11.2437499761581,0.24985791494449,-300.890773773193
2009-06-09,11.6833334763845,0.265844585994879,-561.612037658691,11.127083559831,0.248904164880514,-302.66121673584
2009-06-10,11.6541667381922,0.266185207913319,-561.243942260742,11.1000003814697,0.249426458962262,-302.23240852356
2009-06-11,11.839583337307,0.268115422998865,-556.715543111165,11.0979170401891,0.249585417409738,-299.431326548258
2009-06-12,12.0541667620341,0.270261455049118,-545.640207224528,11.100000222524,0.25061749492089,-296.659347941081
2009-06-13,12.425,0.27191875,-535.0373125,11.1541666666667,0.2510125,-294.333145833334
2009-06-14,12.6958333333333,0.2730875,-528.098979166667,11.2708333333333,0.2517,-290.733791666667
2009-06-15,13.01875,0.273591666666667,-521.037875,11.4354166666667,0.252502083333333,-286.609520833333
2009-06-16,13.1770833333333,0.274645833333333,-515.41625,11.5666666666667,0.2528,-282.6658125
2009-06-17,13.1375,0.27549375,-513.406041666667,11.69375,0.253441666666667,-277.944854166666
2009-06-18,12.8541666666667,0.275677083333333,-513.966083333333,11.7875,0.253922916666666,-275.010666666667
2009-06-19,12.575,0.27549375,-514.4105,11.75625,0.2548625,-273.530354166667
2009-06-20,12.50625,0.275677083333333,-510.9695,11.7,0.255022916666667,-271.46475
2009-06-21,12.53125,0.276525,-506.573041666667,11.7,0.255916666666667,-268.449979166667
2009-06-22,12.8895833333333,0.278420833333334,-494.041125,11.7020833333333,0.256260416666667,-263.1660625
2009-06-23,13.3875,0.29063125,-378.174020833334,11.8354166666667,0.257933333333333,-201.380145833333
2009-06-24,14.0708333333333,0.29629375,-10.3970625,12.0229166666667,0.259879166666667,-152.377583333333
2009-06-25,14.4333333333333,0.363502083333333,-10.4314166666667,12.3041666666667,0.300039583333333,-34.4557291666667
2009-06-26,14.48125,0.39505,-10.366875,12.6208333333333,0.388710416666667,-10.7447291666667
2009-06-27,14.275,0.4014125,-10.3235416666667,12.7729166666667,0.386052083333333,-10.67925
2009-06-28,14.2416666666667,0.40196875,-10.29725,12.8354166666667,0.364835416666667,-10.6650416666667
2009-06-29,14.3125,0.403039583333333,-10.2546666666667,12.9,0.344458333333333,-10.6385625
2009-06-30,14.5166666666667,0.403933333333333,-10.21775,12.9583333333333,0.344422916666667,-10.6069166666667
2009-07-01,14.9479166666667,0.404322916666666,-10.1673125,13.08125,0.345683333333333,-10.5740833333333
2009-07-02,15.4645833333333,0.40505625,-10.12525,13.2958333333333,0.346279166666667,-10.536125
2009-07-03,15.7270833333333,0.405377083333333,-10.090375,13.5479166666667,0.347004166666667,-10.493625
2009-07-04,15.55,0.405308333333333,-10.0645,13.7583333333333,0.347516666666667,-10.4462916666667
2009-07-05,15.5854166666667,0.405216666666667,-10.033125,13.8770833333333,0.3467875,-10.3958958333333
2009-07-06,15.6604166666667,0.405170833333333,-10.0130833333333,13.9666666666667,0.346766666666667,-10.309125
2009-07-07,15.5020833333333,0.404941666666667,-9.98437500000001,14,0.346745833333333,-10.2031458333333
2009-07-08,15.1979166666667,0.4047125,-9.93620833333333,14.0083333333333,0.348035416666666,-10.0769791666667
2009-07-09,14.8875,0.404414583333333,-9.90216666666667,14,0.349410416666667,-9.973
2009-07-10,14.6520833333333,0.40436875,-9.85860416666668,13.94375,0.349845833333333,-9.894625
2009-07-11,14.5395833333333,0.40436875,-9.80952083333333,13.8958333333333,0.34986875,-9.82897916666667
2009-07-12,14.5958333333333,0.404277083333333,-9.7523125,13.8,0.350922916666666,-9.77381250000001
2009-07-13,14.56875,0.404391666666666,-9.670375,13.8,0.35014375,-9.7340625
2009-07-14,14.6,0.404277083333333,-9.5911875,13.8,0.349845833333333,-9.70206249999999
2009-07-15,14.6104166666667,0.404254166666666,-9.52404166666666,13.8,0.349777083333333,-9.67681250000001
2009-07-16,14.7270833333333,0.404208333333333,-9.46754166666667,13.8,0.349364583333333,-9.66402083333334
2009-07-17,14.725,0.403910416666666,-9.41577083333334,13.8,0.35165625,-9.64860416666667
2009-07-18,14.5020833333333,0.403979166666666,-9.3956875,13.8,0.3531,-9.64670833333334
2009-07-19,14.3020833333333,0.4041625,-9.379375,13.7875,0.353191666666667,-9.64918750000001
2009-07-20,14.2479166666667,0.4043,-9.3621875,13.7,0.351839583333333,-9.65062500000001